Location: Boussac
(44.2782°N, 2.3665°E)
Time: 21:44:50
(UTC+00:00)

Cosmos 1634 Rocket - Pass Details

Date: 15 May 2026
Orbit: 960 x 990 km, 82.9° (Epoch: 10 June)

Event Time Altitude Azimuth Distance (km) Brightness Sun altitude
Exits shadow 22:22:34 52° 168° (SSE) 1,186 4.0 -23.8°
Maximum altitude 22:24:09 77° 96° (E) 990 3.9 -23.9°
Drops below altitude 10° 22:30:22 10° 11° (N) 2,717 7.1 -24.3°
Sets 22:32:53 0° 10° (N) 3,672 8.0 -24.5°
